[[{"header":{"parameterUnit":"m.s-1","parameterCategory":2,"la1":30.2991,"la2":30.254,"lo1":-89.0895,"lo2":-89.0444,"dy":0.0017,"dx":0.0017,"nx":28,"ny":28,"refTime":"2024-08-23T03:00:00:Z","depth":"0","parameterNumber":2,"parameterNumberName":"U-component_of_CURRENTS"},"data":[0,0,0,0,0,0,0,0,0,0,0,0,0,0,0,0,0,0,0,0,0,0,0,0,0,0,0,0,0,0,0,0,0,0,0,0,0,0,0,0,0,0,0,0,0,0,0,0,0,0,0,0,0,0,0,0,0,0,-0.2376,-0.2376,0,-0.2292,-0.229,-0.2289,-0.2218,-0.2217,-0.2217,-0.2216,-0.2106,-0.2103,-0.2101,0,0,0,0,0,0,0,0,0,0,0,0,0,-0.2394,-0.2394,-0.2376,-0.2376,-0.2375,-0.2292,-0.229,-0.2289,-0.2218,-0.2217,-0.2217,-0.2216,-0.2107,-0.2103,-0.21,0,0,0,0,0,0,0,0,0,0,0,0,0,-0.2351,-0.2394,-0.2376,-0.2333,-0.2328,-0.2292,-0.229,-0.2288,-0.2218,-0.2217,-0.2217,-0.2216,-0.2108,-0.2104,-0.21,-0.2087,0,0,-0.2088,-0.2086,0,0,0,0,0,0,0,0,-0.2354,-0.235,-0.234,-0.2336,-0.2331,-0.2269,-0.2256,-0.2221,-0.2218,-0.2255,-0.2216,-0.2216,-0.2161,-0.2153,-0.2132,-0.2081,-0.2077,-0.2088,-0.2085,-0.2084,-0.2082,0,0,0,0,0,0,0,-0.2357,-0.2353,-0.2338,-0.2339,-0.2334,-0.229,-0.2283,-0.2248,-0.2208,-0.2252,-0.2247,-0.2245,-0.2158,-0.2136,-0.2129,-0.2075,-0.2088,-0.2084,-0.2082,-0.208,-0.1984,-0.1984,0,0,0,0,0,0,-0.2382,-0.2357,-0.2341,-0.2336,-0.2346,-0.229,-0.2283,-0.2285,-0.2209,-0.2198,-0.2246,-0.2242,-0.2143,-0.2133,-0.2125,-0.208,-0.2084,-0.208,-0.2078,-0.1984,-0.1984,-0.1984,0,0,0,0,0,0,-0.2383,-0.2381,-0.2344,-0.2347,-0.234,-0.2292,-0.2294,-0.2284,-0.2259,-0.2206,-0.2193,-0.2232,-0.2142,-0.213,-0.2089,-0.2076,-0.2078,-0.2075,-0.1984,-0.1984,-0.1984,-0.2007,0,0,0,0,0,0,-0.2384,-0.2382,-0.2386,-0.235,-0.2341,-0.2318,-0.2295,-0.2283,-0.2261,-0.2255,-0.219,-0.2179,-0.2141,-0.2095,-0.2085,-0.2071,-0.2071,-0.1985,-0.1984,-0.1984,-0.2006,-0.2007,-0.2008,0,0,0,0,0,-0.2384,-0.2392,-0.2387,-0.2385,-0.2351,-0.2318,-0.2309,-0.2269,-0.2261,-0.2245,-0.2206,-0.2181,-0.2086,-0.2092,-0.208,-0.2065,-0.1985,-0.1984,-0.1984,-0.2006,-0.2007,-0.2008,0,0,0,0,0,0,-0.2392,-0.2385,-0.2379,-0.2382,-0.2353,-0.2308,-0.2293,-0.2274,-0.223,-0.2224,-0.2177,-0.2163,-0.2118,-0.2095,-0.2103,-0.2037,-0.2032,-0.2029,-0.2052,-0.2053,-0.2054,-0.2082,-0.2068,0,0,0,0,0,-0.2402,-0.2409,-0.2386,-0.2385,-0.2375,-0.2337,-0.232,-0.2294,-0.2257,-0.2236,-0.2193,-0.215,-0.2108,-0.2085,-0.2042,-0.2011,-0.2039,-0.1994,-0.1995,-0.1996,-0.2011,-0.204,-0.2046,-0.1982,-0.1982,-0.1982,0,0,-0.24,-0.2401,-0.2401,-0.2387,-0.2362,-0.2343,-0.2323,-0.2297,-0.2278,-0.2232,-0.2189,-0.2148,-0.21,-0.2056,-0.2035,-0.2035,-0.2034,-0.1995,-0.1996,-0.2012,-0.204,-0.2047,-0.2052,-0.1982,-0.1982,-0.1982,0,0,-0.2396,-0.2406,-0.2403,-0.2389,-0.2365,-0.2345,-0.2343,-0.23,-0.2277,-0.2237,-0.2199,-0.2158,-0.2093,-0.2056,-0.2031,-0.2016,-0.2035,-0.2,-0.2028,-0.2055,-0.2061,-0.2067,-0.214,-0.2152,-0.2004,-0.2004,-0.2004,0,-0.2384,-0.2396,-0.2392,-0.2384,-0.2383,-0.2352,-0.2345,-0.2313,-0.2259,-0.2266,-0.2226,-0.2156,-0.2093,-0.207,-0.2044,-0.2018,-0.206,-0.2026,-0.2059,-0.2064,-0.207,-0.2143,-0.2156,-0.2005,-0.2005,-0.2004,-0.2004,0,-0.2376,-0.2385,-0.2382,-0.2374,-0.2369,-0.2357,-0.2334,-0.2323,-0.23,-0.2281,-0.2253,-0.2171,-0.2144,-0.21,-0.2054,-0.2059,-0.2088,-0.2056,-0.2062,-0.2078,-0.2154,-0.2167,-0.2006,-0.2006,-0.2006,-0.2005,0,0,-0.2346,-0.2371,-0.237,-0.239,-0.2373,-0.2376,-0.2365,-0.2367,-0.2401,-0.2322,-0.2359,-0.2234,-0.2217,-0.2187,-0.2129,-0.2123,-0.2171,-0.2103,-0.2104,-0.2189,-0.2284,-0.2136,-0.2137,-0.2153,-0.2155,-0.2156,-0.2333,0,-0.2333,-0.2349,-0.2364,-0.2382,-0.2392,-0.24,-0.2413,-0.2417,-0.2413,-0.2439,-0.2369,-0.2356,-0.2244,-0.2234,-0.2208,-0.2181,-0.2203,-0.2129,-0.2245,-0.2249,-0.2124,-0.2144,-0.2065,-0.2199,-0.2346,-0.2348,-0.235,0,-0.2315,-0.2342,-0.2363,-0.2439,-0.2448,-0.2457,-0.2532,-0.2535,-0.2566,-0.2566,-0.2549,-0.2513,-0.2472,-0.2377,-0.2364,-0.2331,-0.2313,-0.229,-0.2296,-0.2158,-0.2123,-0.2199,-0.2218,-0.2227,-0.237,-0.2368,-0.2367,0,-0.2308,-0.235,-0.2386,-0.2397,-0.2457,-0.2494,-0.253,-0.2577,-0.2611,-0.265,-0.2685,-0.2655,-0.2634,-0.2601,-0.2489,-0.246,-0.25,-0.2466,-0.2338,-0.2332,-0.2283,-0.2266,-0.2328,-0.2491,-0.2491,-0.249,-0.249,0,-0.2293,-0.2323,-0.2396,-0.2408,-0.2494,-0.2528,-0.2614,-0.2651,-0.2714,-0.2751,-0.2743,-0.2736,-0.2682,-0.2669,-0.259,-0.2488,-0.2585,-0.2358,-0.2354,-0.2287,-0.2269,-0.2285,-0.2301,-0.2497,-0.2496,-0.2494,-0.2493,0,-0.2263,-0.2296,-0.2356,-0.2446,-0.2482,-0.2543,-0.2647,-0.2711,-0.2766,-0.2819,-0.2828,-0.2833,-0.2771,-0.2727,-0.2686,-0.2597,-0.2488,-0.2479,-0.2411,-0.2389,-0.2221,-0.2239,-0.2253,-0.22,-0.2401,-0.2398,-0.2396,0,-0.224,-0.2262,-0.2379,-0.2425,-0.2462,-0.2556,-0.2622,-0.271,-0.2764,-0.2824,-0.2842,-0.2826,-0.2725,-0.2646,-0.2515,-0.2428,-0.2395,-0.2326,-0.2203,-0.2204,-0.2227,-0.2205,-0.2159,-0.2202,-0.2198,-0.2195,-0.2192,0,-0.2201,-0.2248,-0.2303,-0.2392,-0.2468,-0.2551,-0.264,-0.2684,-0.2763,-0.2771,-0.2713,-0.2639,-0.2568,-0.239,-0.2306,-0.2223,-0.2265,-0.2252,-0.2289,-0.2089,-0.2043,-0.1992,-0.2139,-0.2165,-0.2167,-0.2169,-0.2171,-0.2172,-0.2166,-0.2199,-0.2258,-0.2337,-0.2424,-0.2462,-0.2469,-0.2534,-0.2526,-0.2467,-0.2508,-0.2365,-0.2319,-0.2124,-0.2072,-0.2003,-0.2005,-0.1948,-0.1991,-0.1986,-0.1843,-0.1911,-0.1871,-0.1872,-0.1873,-0.1873,-0.1874,0,-0.2087,-0.2116,-0.2189,-0.2246,-0.2285,-0.2354,-0.2413,-0.2354,-0.2249,-0.2232,-0.2114,-0.2049,-0.1932,-0.1937,-0.1891,-0.1817,-0.1781,-0.1784,-0.1804,-0.1781,-0.1897,-0.1789,-0.1683,-0.1683,-0.1683,-0.1683,-0.1683,-0.1683,-0.2031,-0.2043,-0.2072,-0.206,-0.2101,-0.2039,-0.2021,-0.1932,-0.1886,-0.1709,-0.168,-0.1733,-0.1812,-0.1954,-0.1898,-0.1808,-0.1785,-0.1684,-0.1714,-0.1874,-0.1895,-0.1916,-0.1818,-0.1719,-0.1719,-0.1543,-0.1542,-0.1541]},{"header":{"parameterUnit":"m.s-1","parameterCategory":2,"la1":30.2991,"la2":30.254,"lo1":-89.0895,"lo2":-89.0444,"dy":0.0017,"dx":0.0017,"nx":28,"ny":28,"refTime":"2024-08-23T03:00:00:Z","depth":"0","parameterNumber":3,"parameterNumberName":"V-component_of_CURRENTS"},"data":[0,0,0,0,0,0,0,0,0,0,0,0,0,0,0,0,0,0,0,0,0,0,0,0,0,0,0,0,0,0,0,0,0,0,0,0,0,0,0,0,0,0,0,0,0,0,0,0,0,0,0,0,0,0,0,0,0,0,-0.025,-0.025,0,-0.0204,-0.0204,-0.0203,-0.0207,-0.0208,-0.0208,-0.0209,-0.0147,-0.0145,-0.0143,0,0,0,0,0,0,0,0,0,0,0,0,0,-0.0304,-0.0303,-0.0251,-0.025,-0.0249,-0.0204,-0.0204,-0.0203,-0.0207,-0.0208,-0.0209,-0.0209,-0.0148,-0.0145,-0.0143,0,0,0,0,0,0,0,0,0,0,0,0,0,-0.0272,-0.0303,-0.0251,-0.0246,-0.0245,-0.0204,-0.0203,-0.0203,-0.0207,-0.0208,-0.0209,-0.021,-0.0149,-0.0146,-0.0142,-0.01,0,0,-0.0132,-0.013,0,0,0,0,0,0,0,0,-0.0273,-0.027,-0.0247,-0.0246,-0.0245,-0.0212,-0.02,-0.0168,-0.0206,-0.0221,-0.0209,-0.021,-0.0167,-0.0162,-0.0151,-0.0097,-0.0094,-0.0131,-0.0129,-0.0128,-0.0127,0,0,0,0,0,0,0,-0.0276,-0.0271,-0.0232,-0.0246,-0.0245,-0.0233,-0.023,-0.0193,-0.0188,-0.022,-0.022,-0.0215,-0.0166,-0.0155,-0.015,-0.0093,-0.0131,-0.0128,-0.0126,-0.0125,-0.0016,-0.0015,0,0,0,0,0,0,-0.0282,-0.0274,-0.0234,-0.0231,-0.0262,-0.0231,-0.0228,-0.0222,-0.0189,-0.0185,-0.0214,-0.0215,-0.016,-0.0154,-0.0148,-0.0098,-0.0128,-0.0125,-0.0123,-0.0017,-0.0016,-0.0015,0,0,0,0,0,0,-0.0283,-0.0279,-0.0236,-0.0251,-0.0245,-0.0229,-0.0223,-0.022,-0.0209,-0.0185,-0.0181,-0.0205,-0.016,-0.0152,-0.0117,-0.0095,-0.0123,-0.012,-0.0018,-0.0016,-0.0015,0.0004,0,0,0,0,0,0,-0.0285,-0.028,-0.0275,-0.0252,-0.0244,-0.021,-0.0221,-0.0219,-0.0204,-0.0205,-0.0175,-0.0171,-0.0161,-0.0122,-0.0113,-0.0091,-0.0117,-0.0019,-0.0017,-0.0016,0.0002,0.0006,0.0009,0,0,0,0,0,-0.0287,-0.0277,-0.0275,-0.027,-0.0239,-0.0209,-0.0204,-0.0197,-0.0202,-0.0191,-0.0175,-0.0172,-0.0106,-0.0118,-0.0108,-0.0085,-0.002,-0.0018,-0.0016,0.0001,0.0005,0.0009,0,0,0,0,0,0,-0.0293,-0.0276,-0.0273,-0.0258,-0.0235,-0.021,-0.0197,-0.0192,-0.0169,-0.0171,-0.0155,-0.0148,-0.0111,-0.0099,-0.0112,-0.005,-0.0064,-0.006,-0.0055,-0.005,-0.0047,-0.0031,-0.0114,0,0,0,0,0,-0.0292,-0.0286,-0.0261,-0.0248,-0.0235,-0.0214,-0.0201,-0.0194,-0.0172,-0.0164,-0.0144,-0.0121,-0.0093,-0.0075,-0.0049,-0.0007,0.0015,0.0012,0.0015,0.0018,0.0038,0.007,0.0078,-0.0009,-0.0009,-0.0009,0,0,-0.0291,-0.028,-0.0277,-0.0249,-0.023,-0.0202,-0.0208,-0.0184,-0.0158,-0.0158,-0.0118,-0.0106,-0.008,-0.0041,-0.0022,-0.0028,0.0057,0.002,0.0022,0.0041,0.0072,0.0081,0.0088,-0.0007,-0.0008,-0.0008,0,0,-0.0278,-0.0273,-0.0258,-0.0237,-0.0208,-0.0192,-0.0185,-0.0155,-0.014,-0.01,-0.0097,-0.0068,-0.0026,-0.0,0.0017,0.0058,0.0071,0.0057,0.0093,0.0123,0.013,0.0137,0.0188,0.02,0.006,0.006,0.006,0,-0.0276,-0.0257,-0.0247,-0.0219,-0.0203,-0.0187,-0.016,-0.0132,-0.0096,-0.0076,-0.0086,-0.0018,0.0,0.0056,0.0065,0.0069,0.0088,0.0074,0.0127,0.0134,0.0141,0.0192,0.0204,0.0061,0.0061,0.0061,0.0061,0,-0.0247,-0.023,-0.0216,-0.0182,-0.016,-0.0137,-0.0101,-0.0074,-0.006,-0.0034,0.0018,0.0044,0.008,0.009,0.0094,0.0151,0.0151,0.0124,0.0117,0.0151,0.0202,0.0215,0.0063,0.0062,0.0062,0.0062,0,0,-0.0248,-0.0207,-0.0202,-0.0196,-0.0144,-0.0134,-0.0075,-0.0028,-0.0007,0.0042,0.0078,0.0139,0.0142,0.0163,0.0169,0.0204,0.027,0.0185,0.0186,0.0237,0.0352,0.0337,0.0349,0.0241,0.0243,0.0244,0.0373,0,-0.0229,-0.0197,-0.017,-0.0142,-0.0126,-0.0092,-0.0052,-0.0008,0.003,0.0069,0.0124,0.0153,0.0173,0.0172,0.0221,0.0247,0.0301,0.0239,0.0312,0.0315,0.0297,0.0362,0.034,0.045,0.0385,0.0387,0.0388,0,-0.0206,-0.0196,-0.0168,-0.015,-0.014,-0.0122,-0.0081,-0.0042,0.0037,0.0065,0.0131,0.0162,0.0245,0.0227,0.0348,0.0301,0.0342,0.0368,0.0373,0.0364,0.0323,0.0404,0.0475,0.059,0.0407,0.0406,0.0405,0,-0.0235,-0.0198,-0.019,-0.0178,-0.0143,-0.0133,-0.0117,-0.0049,-0.0033,0.0055,0.007,0.0184,0.0218,0.0298,0.0387,0.0358,0.0507,0.0466,0.0509,0.0509,0.051,0.0506,0.0702,0.0558,0.0558,0.0558,0.0557,0,-0.023,-0.0227,-0.0216,-0.0216,-0.0235,-0.0185,-0.0186,-0.0145,-0.0088,-0.0055,0.0047,0.0102,0.0231,0.0333,0.0406,0.0517,0.0533,0.0547,0.0547,0.0517,0.0512,0.0624,0.0668,0.0563,0.0562,0.0561,0.056,0,-0.0255,-0.0235,-0.025,-0.0243,-0.0252,-0.0273,-0.0272,-0.0272,-0.0195,-0.0146,-0.0122,0.0041,0.0194,0.0329,0.0477,0.0531,0.0688,0.0661,0.0634,0.0627,0.0738,0.0781,0.0977,0.1009,0.0729,0.0729,0.073,0,-0.0261,-0.0266,-0.0307,-0.035,-0.0356,-0.038,-0.0403,-0.0345,-0.0337,-0.017,-0.0159,0.0022,0.0151,0.0382,0.0517,0.0667,0.0746,0.0726,0.0666,0.0778,0.0827,0.0859,0.0874,0.069,0.069,0.069,0.069,0,-0.0294,-0.0315,-0.0351,-0.0443,-0.0493,-0.0527,-0.0545,-0.055,-0.0439,-0.0363,-0.0202,-0.0072,0.0178,0.0368,0.0559,0.0637,0.0789,0.0728,0.0857,0.0839,0.0879,0.0896,0.0589,0.0691,0.069,0.069,0.069,0.069,-0.0347,-0.0401,-0.0468,-0.056,-0.0613,-0.0654,-0.0668,-0.0646,-0.0596,-0.0467,-0.0307,-0.0126,0.0197,0.0464,0.059,0.0827,0.0804,0.0865,0.092,0.0953,0.0956,0.066,0.0738,0.0738,0.0738,0.0738,0.0738,0,-0.0421,-0.0488,-0.0582,-0.0679,-0.075,-0.0745,-0.075,-0.0731,-0.0655,-0.056,-0.042,-0.0086,0.0214,0.0535,0.09,0.1021,0.1035,0.1091,0.1152,0.1162,0.0919,0.0886,0.0984,0.0984,0.0984,0.0984,0.0984,0.0984,-0.0471,-0.0582,-0.0642,-0.0788,-0.0839,-0.0871,-0.086,-0.0803,-0.0739,-0.0569,-0.0402,-0.0285,0.0233,0.0937,0.1308,0.1309,0.1427,0.1397,0.1478,0.1329,0.1312,0.1297,0.1279,0.1459,0.146,0.168,0.1683,0.1684]}],[{"header":{"parameterUnit":"m.s-1","parameterCategory":2,"la1":30.2991,"la2":30.254,"lo1":-89.0895,"lo2":-89.0444,"dy":0.0017,"dx":0.0017,"nx":28,"ny":28,"refTime":"2024-08-23T03:00:00:Z","depth":"2","parameterNumber":2,"parameterNumberName":"U-component_of_CURRENTS"},"data":[0,0,0,0,0,0,0,0,0,0,0,0,0,0,0,0,0,0,0,0,0,0,0,0,0,0,0,0,0,0,0,0,0,0,0,0,0,0,0,0,0,0,0,0,0,0,0,0,0,0,0,0,0,0,0,0,0,0,-0.179,-0.1789,0,-0.1693,-0.1692,-0.1691,-0.1667,-0.1668,-0.1668,-0.1669,-0.1578,-0.1575,-0.1572,0,0,0,0,0,0,0,0,0,0,0,0,0,-0.1973,-0.1969,-0.179,-0.1789,-0.1788,-0.1693,-0.1692,-0.169,-0.1667,-0.1668,-0.1669,-0.1669,-0.1579,-0.1576,-0.1572,0,0,0,0,0,0,0,0,0,0,0,0,0,-0.1885,-0.1968,-0.179,-0.1766,-0.1763,-0.1694,-0.1692,-0.169,-0.1667,-0.1668,-0.1669,-0.167,-0.1581,-0.1576,-0.1571,-0.1521,0,0,-0.1557,-0.1555,0,0,0,0,0,0,0,0,-0.189,-0.1879,-0.177,-0.1767,-0.1764,-0.1694,-0.1723,-0.1634,-0.1666,-0.1702,-0.1669,-0.167,-0.1617,-0.161,-0.1588,-0.1516,-0.1513,-0.1557,-0.1554,-0.1552,-0.1551,0,0,0,0,0,0,0,-0.1896,-0.1883,-0.1751,-0.1769,-0.1765,-0.1765,-0.1754,-0.1706,-0.1654,-0.1699,-0.1697,-0.1688,-0.1616,-0.1592,-0.1585,-0.1511,-0.1557,-0.1553,-0.155,-0.1548,-0.1462,-0.1462,0,0,0,0,0,0,-0.1907,-0.1888,-0.1754,-0.1748,-0.1832,-0.1761,-0.1748,-0.1715,-0.1654,-0.1646,-0.1687,-0.1687,-0.16,-0.1591,-0.1582,-0.1559,-0.1552,-0.1548,-0.1545,-0.1461,-0.1462,-0.1462,0,0,0,0,0,0,-0.1911,-0.1895,-0.1758,-0.1819,-0.1801,-0.1757,-0.1719,-0.1712,-0.1711,-0.1645,-0.1638,-0.1697,-0.16,-0.1589,-0.1559,-0.1554,-0.1546,-0.1541,-0.1461,-0.1461,-0.1462,-0.1487,0,0,0,0,0,0,-0.1916,-0.1897,-0.1906,-0.1818,-0.1798,-0.174,-0.1718,-0.1709,-0.1703,-0.1703,-0.165,-0.1642,-0.16,-0.1566,-0.1554,-0.1548,-0.1538,-0.146,-0.1461,-0.1462,-0.1486,-0.1489,-0.1492,0,0,0,0,0,-0.1923,-0.1909,-0.1906,-0.1892,-0.1801,-0.174,-0.1731,-0.1703,-0.1703,-0.1706,-0.167,-0.1645,-0.1564,-0.1562,-0.1548,-0.154,-0.146,-0.1461,-0.1462,-0.1485,-0.1488,-0.1491,0,0,0,0,0,0,-0.1947,-0.1903,-0.1898,-0.186,-0.1823,-0.1738,-0.1739,-0.1717,-0.1689,-0.1692,-0.164,-0.1628,-0.1601,-0.1573,-0.1573,-0.1523,-0.1512,-0.151,-0.1534,-0.1537,-0.154,-0.157,-0.1534,0,0,0,0,0,-0.1968,-0.1996,-0.1908,-0.1899,-0.1867,-0.1812,-0.1796,-0.1767,-0.1717,-0.1708,-0.1668,-0.163,-0.1588,-0.1569,-0.1529,-0.1495,-0.1538,-0.1487,-0.149,-0.1492,-0.151,-0.1544,-0.1552,-0.1466,-0.1466,-0.1466,0,0,-0.1991,-0.1967,-0.1986,-0.1918,-0.1881,-0.1834,-0.1805,-0.1771,-0.1748,-0.17,-0.1672,-0.1636,-0.1584,-0.1545,-0.1532,-0.1525,-0.1553,-0.1494,-0.1496,-0.1512,-0.1546,-0.1555,-0.1562,-0.1467,-0.1467,-0.1467,0,0,-0.2008,-0.2002,-0.2007,-0.1975,-0.1924,-0.1882,-0.1878,-0.1795,-0.1778,-0.1739,-0.1701,-0.1667,-0.1607,-0.1562,-0.1532,-0.1529,-0.1567,-0.1526,-0.1557,-0.159,-0.1598,-0.1605,-0.1735,-0.1753,-0.1526,-0.1526,-0.1526,0,-0.2006,-0.2004,-0.1999,-0.1962,-0.1943,-0.1904,-0.1861,-0.1831,-0.1763,-0.1756,-0.1742,-0.1669,-0.1609,-0.157,-0.1561,-0.1532,-0.1604,-0.1543,-0.1595,-0.1602,-0.1609,-0.174,-0.176,-0.1528,-0.1528,-0.1527,-0.1527,0,-0.2027,-0.2006,-0.1995,-0.1961,-0.1943,-0.1909,-0.1848,-0.1843,-0.1824,-0.1789,-0.1764,-0.1693,-0.1675,-0.1625,-0.1581,-0.1594,-0.1654,-0.1596,-0.1589,-0.162,-0.1756,-0.1777,-0.153,-0.1529,-0.1529,-0.1528,0,0,-0.2011,-0.2005,-0.2004,-0.1987,-0.1938,-0.1911,-0.1896,-0.1857,-0.1908,-0.1819,-0.1873,-0.1732,-0.1743,-0.1713,-0.1665,-0.1651,-0.175,-0.1652,-0.1653,-0.179,-0.1926,-0.173,-0.1734,-0.1713,-0.1715,-0.1716,-0.2027,0,-0.1999,-0.1964,-0.1977,-0.1948,-0.1893,-0.1894,-0.1912,-0.1897,-0.1916,-0.1973,-0.1879,-0.1905,-0.1766,-0.1801,-0.1761,-0.1762,-0.1797,-0.1678,-0.187,-0.1878,-0.1701,-0.1745,-0.1588,-0.1828,-0.2047,-0.2051,-0.2053,0,-0.1978,-0.1965,-0.1931,-0.1941,-0.1928,-0.194,-0.2014,-0.2028,-0.209,-0.212,-0.2123,-0.2111,-0.2085,-0.1984,-0.1995,-0.1943,-0.1954,-0.193,-0.1941,-0.1756,-0.1713,-0.1818,-0.1857,-0.2087,-0.2085,-0.2082,-0.208,0,-0.195,-0.1922,-0.1917,-0.1909,-0.1917,-0.195,-0.1994,-0.2069,-0.2136,-0.2253,-0.233,-0.2318,-0.2337,-0.2314,-0.2204,-0.2164,-0.2242,-0.2193,-0.2041,-0.2034,-0.1932,-0.1907,-0.2236,-0.2235,-0.2235,-0.2234,-0.2233,0,-0.1877,-0.1862,-0.1921,-0.1903,-0.1959,-0.1979,-0.2111,-0.216,-0.2318,-0.2386,-0.2423,-0.2436,-0.2409,-0.2408,-0.2344,-0.2237,-0.2363,-0.2074,-0.2076,-0.1939,-0.1912,-0.2133,-0.2117,-0.2245,-0.2243,-0.2241,-0.2239,0,-0.1768,-0.1808,-0.181,-0.1885,-0.1922,-0.1973,-0.2158,-0.2274,-0.2409,-0.2526,-0.2562,-0.2587,-0.2527,-0.2501,-0.2487,-0.2386,-0.2331,-0.2265,-0.2137,-0.2108,-0.2118,-0.21,-0.2227,-0.2223,-0.2218,-0.2215,-0.2212,0,-0.1673,-0.1677,-0.1808,-0.1871,-0.1902,-0.2021,-0.2124,-0.2287,-0.2399,-0.2518,-0.2539,-0.2554,-0.2402,-0.2357,-0.2252,-0.2213,-0.2224,-0.206,-0.1871,-0.2116,-0.2107,-0.2096,-0.2084,-0.1839,-0.1833,-0.1829,-0.1825,0,-0.1513,-0.1625,-0.1671,-0.1811,-0.1919,-0.2024,-0.2163,-0.2215,-0.2367,-0.24,-0.2294,-0.2182,-0.2154,-0.1948,-0.1948,-0.1869,-0.205,-0.1953,-0.2288,-0.1776,-0.1748,-0.1738,-0.1741,-0.1783,-0.1787,-0.179,-0.1792,-0.1794,-0.1437,-0.1484,-0.162,-0.1732,-0.1876,-0.1912,-0.1879,-0.2,-0.1985,-0.1962,-0.1981,-0.1818,-0.1834,-0.1648,-0.1575,-0.1596,-0.1692,-0.1656,-0.1674,-0.1696,-0.1505,-0.1459,-0.1418,-0.142,-0.1422,-0.1423,-0.1424,0,-0.127,-0.1391,-0.1528,-0.1637,-0.1676,-0.1821,-0.1828,-0.1746,-0.1563,-0.167,-0.1565,-0.1374,-0.1262,-0.132,-0.1271,-0.1241,-0.1268,-0.12,-0.126,-0.13,-0.1336,-0.1129,-0.0942,-0.0941,-0.094,-0.0939,0,0,-0.1202,-0.1205,-0.1296,-0.1323,-0.1455,-0.1421,-0.132,-0.1224,-0.1222,-0.108,-0.1091,-0.1243,-0.1258,-0.1116,-0.1071,-0.1008,-0.1145,-0.0956,-0.1338,-0.1447,-0.1482,-0.1586,-0.1306,0,0,0,0,0]},{"header":{"parameterUnit":"m.s-1","parameterCategory":2,"la1":30.2991,"la2":30.254,"lo1":-89.0895,"lo2":-89.0444,"dy":0.0017,"dx":0.0017,"nx":28,"ny":28,"refTime":"2024-08-23T03:00:00:Z","depth":"2","parameterNumber":3,"parameterNumberName":"V-component_of_CURRENTS"},"data":[0,0,0,0,0,0,0,0,0,0,0,0,0,0,0,0,0,0,0,0,0,0,0,0,0,0,0,0,0,0,0,0,0,0,0,0,0,0,0,0,0,0,0,0,0,0,0,0,0,0,0,0,0,0,0,0,0,0,-0.0438,-0.0439,0,-0.0449,-0.0449,-0.0449,-0.0431,-0.0431,-0.043,-0.043,-0.0375,-0.0374,-0.0373,0,0,0,0,0,0,0,0,0,0,0,0,0,-0.0393,-0.0394,-0.0438,-0.0439,-0.0439,-0.0449,-0.0449,-0.0449,-0.0432,-0.0431,-0.043,-0.043,-0.0376,-0.0374,-0.0373,0,0,0,0,0,0,0,0,0,0,0,0,0,-0.0408,-0.0394,-0.0438,-0.0432,-0.0432,-0.0449,-0.0449,-0.0449,-0.0432,-0.0431,-0.043,-0.0429,-0.0376,-0.0374,-0.0373,-0.0379,0,0,-0.0369,-0.0368,0,0,0,0,0,0,0,0,-0.0407,-0.041,-0.0433,-0.0433,-0.0432,-0.0439,-0.0413,-0.0423,-0.0432,-0.043,-0.043,-0.0429,-0.0392,-0.0389,-0.0392,-0.0377,-0.0374,-0.0368,-0.0367,-0.0367,-0.0366,0,0,0,0,0,0,0,-0.0406,-0.0409,-0.0442,-0.0433,-0.0433,-0.0426,-0.0427,-0.0415,-0.0413,-0.0431,-0.043,-0.0433,-0.0391,-0.0394,-0.039,-0.0373,-0.0368,-0.0367,-0.0366,-0.0366,-0.0329,-0.0329,0,0,0,0,0,0,-0.0409,-0.0408,-0.0441,-0.0442,-0.0419,-0.0427,-0.0428,-0.0437,-0.0415,-0.0412,-0.0433,-0.0432,-0.0397,-0.0392,-0.0388,-0.036,-0.0367,-0.0365,-0.0365,-0.0329,-0.0329,-0.0329,0,0,0,0,0,0,-0.0408,-0.0412,-0.0441,-0.0426,-0.0429,-0.0429,-0.0438,-0.0437,-0.0425,-0.0418,-0.0413,-0.0421,-0.0396,-0.039,-0.0372,-0.0359,-0.0365,-0.0363,-0.0329,-0.0329,-0.0329,-0.0324,0,0,0,0,0,0,-0.0407,-0.0412,-0.0407,-0.0426,-0.043,-0.0445,-0.0439,-0.0438,-0.043,-0.0428,-0.0405,-0.0401,-0.0395,-0.0374,-0.037,-0.0357,-0.0362,-0.0329,-0.0329,-0.0329,-0.0324,-0.0324,-0.0323,0,0,0,0,0,-0.0405,-0.0407,-0.0407,-0.041,-0.0428,-0.0445,-0.0446,-0.0443,-0.043,-0.0428,-0.0413,-0.04,-0.037,-0.0373,-0.0368,-0.0354,-0.0329,-0.0329,-0.0329,-0.0325,-0.0324,-0.0323,0,0,0,0,0,0,-0.0381,-0.0406,-0.0406,-0.0414,-0.0425,-0.0443,-0.0436,-0.0436,-0.0423,-0.0413,-0.0401,-0.0395,-0.0378,-0.0368,-0.0371,-0.0344,-0.0347,-0.0346,-0.0345,-0.0344,-0.0344,-0.0295,-0.0361,0,0,0,0,0,-0.0376,-0.0379,-0.0406,-0.0405,-0.0413,-0.0421,-0.0422,-0.0425,-0.0423,-0.0416,-0.0402,-0.0386,-0.0377,-0.0361,-0.0356,-0.0336,-0.0286,-0.0324,-0.0324,-0.0323,-0.0281,-0.0217,-0.0206,-0.0328,-0.0328,-0.0328,0,0,-0.0367,-0.0377,-0.038,-0.0399,-0.0405,-0.0428,-0.0419,-0.0422,-0.0429,-0.0412,-0.04,-0.0386,-0.0374,-0.036,-0.0349,-0.0345,-0.0264,-0.0323,-0.0323,-0.028,-0.0215,-0.0203,-0.0192,-0.0328,-0.0328,-0.0328,0,0,-0.0362,-0.036,-0.0371,-0.0388,-0.0402,-0.0412,-0.0412,-0.0426,-0.0414,-0.0411,-0.04,-0.0368,-0.0362,-0.034,-0.0331,-0.032,-0.0271,-0.0327,-0.0271,-0.0211,-0.02,-0.0189,-0.0111,-0.0093,-0.0317,-0.0317,-0.0317,0,-0.0351,-0.0378,-0.0374,-0.0398,-0.0413,-0.0408,-0.0435,-0.0427,-0.0429,-0.0398,-0.0405,-0.0347,-0.0348,-0.0298,-0.0297,-0.0315,-0.0262,-0.0278,-0.0207,-0.0196,-0.0184,-0.0107,-0.0088,-0.0317,-0.0317,-0.0317,-0.0317,0,-0.0362,-0.0394,-0.04,-0.0431,-0.0437,-0.046,-0.0463,-0.0444,-0.0427,-0.0406,-0.0345,-0.0328,-0.0268,-0.0287,-0.0288,-0.0208,-0.0191,-0.0222,-0.0203,-0.0171,-0.0093,-0.0072,-0.0317,-0.0317,-0.0317,-0.0317,0,0,-0.0341,-0.0401,-0.0407,-0.0445,-0.0465,-0.048,-0.0463,-0.0444,-0.0388,-0.0371,-0.0292,-0.0276,-0.0208,-0.0191,-0.0176,-0.013,-0.0027,-0.013,-0.0127,-0.0041,0.0139,0.008,0.0097,-0.0042,-0.0039,-0.0036,0.0161,0,-0.0364,-0.0435,-0.0437,-0.0498,-0.0552,-0.0525,-0.0501,-0.0464,-0.0399,-0.0314,-0.0255,-0.0188,-0.0189,-0.0142,-0.0083,-0.0048,0.0029,-0.0075,0.0087,0.0093,0.0045,0.0119,0.0062,0.0227,0.0182,0.0185,0.0187,0,-0.0388,-0.0446,-0.0515,-0.056,-0.0566,-0.056,-0.049,-0.0462,-0.0327,-0.0267,-0.0144,-0.0083,0.0021,-0.0006,0.0148,0.0088,0.0144,0.0163,0.017,0.0139,0.0072,0.0187,0.0266,0.0222,0.0219,0.0217,0.0215,0,-0.0429,-0.0498,-0.0556,-0.0581,-0.0613,-0.0579,-0.0544,-0.0424,-0.0379,-0.0197,-0.0144,0.0023,0.0085,0.0193,0.026,0.0224,0.0411,0.0356,0.0371,0.0367,0.0367,0.0356,0.0492,0.0491,0.0491,0.049,0.049,0,-0.0495,-0.0546,-0.0568,-0.0624,-0.063,-0.0596,-0.053,-0.0453,-0.0314,-0.0243,-0.0097,-0.0022,0.0133,0.0246,0.0322,0.0426,0.048,0.0427,0.0426,0.0362,0.0349,0.0374,0.0357,0.0498,0.0496,0.0495,0.0493,0,-0.0565,-0.0589,-0.0667,-0.0684,-0.0672,-0.0658,-0.058,-0.0526,-0.0375,-0.027,-0.0224,-0.0041,0.0115,0.0261,0.0433,0.0476,0.0583,0.0603,0.0527,0.0511,0.0495,0.0476,0.0671,0.0671,0.0671,0.0671,0.0671,0,-0.0614,-0.0669,-0.0718,-0.0746,-0.075,-0.0718,-0.07,-0.0571,-0.0514,-0.0304,-0.028,-0.0079,0.0001,0.0252,0.0421,0.0598,0.0605,0.0631,0.0536,0.0541,0.052,0.0501,0.0483,0.0553,0.0552,0.0551,0.055,0,-0.0721,-0.0717,-0.078,-0.0843,-0.0846,-0.0857,-0.0801,-0.0787,-0.0619,-0.0544,-0.0432,-0.0348,-0.0065,0.0117,0.0382,0.0464,0.06,0.0613,0.0688,0.0477,0.0434,0.041,0.0397,0.0542,0.0543,0.0544,0.0544,0.0545,-0.0761,-0.0814,-0.088,-0.0928,-0.095,-0.0973,-0.0957,-0.0913,-0.0861,-0.0682,-0.059,-0.0422,-0.0176,0.0155,0.0334,0.0538,0.0526,0.0558,0.056,0.0563,0.0475,0.043,0.0525,0.0525,0.0526,0.0526,0.0527,0,-0.0809,-0.0884,-0.0961,-0.1021,-0.1055,-0.1034,-0.1018,-0.0976,-0.0933,-0.0788,-0.0669,-0.0432,-0.0207,0.008,0.0359,0.0482,0.0481,0.0517,0.0502,0.0507,0.0512,0.0421,0.0458,0.0458,0.0459,0.0459,0,0,-0.0844,-0.0935,-0.0986,-0.1084,-0.1114,-0.1108,-0.1089,-0.1039,-0.0938,-0.0827,-0.0671,-0.0463,-0.0199,0.0004,0.0196,0.0342,0.0379,0.0342,0.0374,0.0334,0.0338,0.0506,0.0367,0,0,0,0,0]}],[{"header":{"parameterUnit":"m.s-1","parameterCategory":2,"la1":30.2991,"la2":30.254,"lo1":-89.0895,"lo2":-89.0444,"dy":0.0017,"dx":0.0017,"nx":28,"ny":28,"refTime":"2024-08-23T03:00:00:Z","depth":"4","parameterNumber":2,"parameterNumberName":"U-component_of_CURRENTS"},"data":[0,0,0,0,0,0,0,0,0,0,0,0,0,0,0,0,0,0,0,0,0,0,0,0,0,0,0,0,0,0,0,0,0,0,0,0,0,0,0,0,0,0,0,0,0,0,0,0,0,0,0,0,0,0,0,0,0,0,-0.068,-0.0681,0,-0.0711,-0.0712,-0.0712,-0.0714,-0.0713,-0.0713,-0.0713,-0.0736,-0.0737,-0.0738,0,0,0,0,0,0,0,0,0,0,0,0,0,-0.0654,-0.0654,-0.068,-0.0681,-0.0681,-0.0711,-0.0712,-0.0712,-0.0714,-0.0713,-0.0713,-0.0712,-0.0736,-0.0737,-0.0739,0,0,0,0,0,0,0,0,0,0,0,0,0,-0.0674,-0.0654,-0.068,-0.0685,-0.0686,-0.0711,-0.0712,-0.0712,-0.0714,-0.0713,-0.0713,-0.0712,-0.0736,-0.0737,-0.0739,-0.076,0,0,-0.0743,-0.0744,0,0,0,0,0,0,0,0,-0.0672,-0.0675,-0.0684,-0.0685,-0.0686,-0.0708,-0.0711,-0.0728,-0.0714,-0.0704,-0.0713,-0.0712,-0.0726,-0.0729,-0.0737,-0.0761,-0.0762,-0.0743,-0.0744,-0.0745,-0.0745,0,0,0,0,0,0,0,-0.0671,-0.0673,-0.0693,-0.0684,-0.0685,-0.0697,-0.0698,-0.0715,-0.0718,-0.0705,-0.0705,-0.0708,-0.0727,-0.0735,-0.0737,-0.0763,-0.0743,-0.0745,-0.0746,-0.0746,-0.0808,-0.0809,0,0,0,0,0,0,-0.0665,-0.0672,-0.0692,-0.0694,-0.0677,-0.0697,-0.07,-0.0702,-0.0718,-0.072,-0.0708,-0.0708,-0.0733,-0.0735,-0.0738,-0.0778,-0.0745,-0.0746,-0.0747,-0.0807,-0.0808,-0.0809,0,0,0,0,0,0,-0.0665,-0.0667,-0.0691,-0.0683,-0.0687,-0.0698,-0.0701,-0.0703,-0.072,-0.0721,-0.0723,-0.0724,-0.0732,-0.0736,-0.0761,-0.0778,-0.0747,-0.0748,-0.0807,-0.0808,-0.0809,-0.0849,0,0,0,0,0,0,-0.0664,-0.0666,-0.0671,-0.0683,-0.0687,-0.0713,-0.0701,-0.0704,-0.0722,-0.0721,-0.0735,-0.0736,-0.0732,-0.0759,-0.0763,-0.078,-0.075,-0.0806,-0.0807,-0.0808,-0.0847,-0.0851,-0.0855,0,0,0,0,0,-0.0663,-0.0669,-0.0671,-0.0674,-0.0692,-0.0714,-0.0718,-0.0724,-0.0723,-0.0736,-0.0744,-0.0736,-0.077,-0.0761,-0.0765,-0.0783,-0.0805,-0.0807,-0.0808,-0.0845,-0.0851,-0.0855,0,0,0,0,0,0,-0.0665,-0.067,-0.0673,-0.0682,-0.0701,-0.0714,-0.0728,-0.0734,-0.0752,-0.0756,-0.0752,-0.0755,-0.0781,-0.0779,-0.0769,-0.0804,-0.0784,-0.0786,-0.081,-0.0815,-0.082,-0.0812,-0.0751,0,0,0,0,0,-0.0667,-0.067,-0.0684,-0.0694,-0.0706,-0.0721,-0.0733,-0.0741,-0.0756,-0.0764,-0.0773,-0.0781,-0.0791,-0.08,-0.0809,-0.0836,-0.0836,-0.0847,-0.0851,-0.0855,-0.0852,-0.0893,-0.0901,-0.0814,-0.0814,-0.0814,0,0,-0.067,-0.0674,-0.0676,-0.0695,-0.0711,-0.0735,-0.0727,-0.0754,-0.0773,-0.0764,-0.0797,-0.0801,-0.0801,-0.0826,-0.0837,-0.0827,-0.0876,-0.0857,-0.086,-0.0855,-0.0895,-0.0904,-0.0911,-0.0816,-0.0815,-0.0815,0,0,-0.068,-0.0686,-0.0694,-0.0714,-0.0741,-0.0753,-0.0764,-0.079,-0.08,-0.0833,-0.0826,-0.0841,-0.0865,-0.0864,-0.0866,-0.0901,-0.0898,-0.0905,-0.0924,-0.0965,-0.0972,-0.0979,-0.0974,-0.0979,-0.0908,-0.0908,-0.0908,0,-0.0694,-0.0698,-0.0704,-0.0726,-0.0743,-0.0764,-0.0789,-0.0808,-0.0838,-0.0846,-0.0849,-0.0877,-0.0881,-0.0897,-0.0906,-0.0911,-0.0922,-0.0906,-0.0971,-0.0978,-0.0984,-0.0977,-0.0983,-0.091,-0.091,-0.0909,-0.0909,0,-0.0704,-0.0722,-0.0734,-0.0763,-0.0784,-0.0812,-0.0837,-0.086,-0.0878,-0.0891,-0.0918,-0.0926,-0.0938,-0.0943,-0.0937,-0.0976,-0.0963,-0.0973,-0.096,-0.0995,-0.0985,-0.0991,-0.0913,-0.0912,-0.0912,-0.0911,0,0,-0.0707,-0.0736,-0.0744,-0.0759,-0.0807,-0.0822,-0.086,-0.0889,-0.0906,-0.0938,-0.0957,-0.0977,-0.0981,-0.0982,-0.098,-0.1009,-0.1056,-0.1013,-0.1014,-0.1008,-0.1122,-0.1051,-0.105,-0.1092,-0.1093,-0.1094,-0.1091,0,-0.0722,-0.0753,-0.0767,-0.0808,-0.0828,-0.0859,-0.0885,-0.0915,-0.094,-0.0967,-0.0979,-0.1005,-0.0997,-0.1009,-0.1038,-0.1056,-0.1076,-0.1054,-0.1087,-0.1086,-0.1021,-0.1057,-0.11,-0.1096,-0.1097,-0.1098,-0.1098,0,-0.0725,-0.0744,-0.0779,-0.0816,-0.0829,-0.0858,-0.0895,-0.0922,-0.0961,-0.0982,-0.101,-0.103,-0.1063,-0.1063,-0.1109,-0.1101,-0.1113,-0.1123,-0.1124,-0.1047,-0.1027,-0.1056,-0.1108,-0.1108,-0.1107,-0.1106,-0.1106,0,-0.07,-0.075,-0.0772,-0.079,-0.0839,-0.0857,-0.0884,-0.0924,-0.0942,-0.0997,-0.1014,-0.1064,-0.1079,-0.1128,-0.1129,-0.1145,-0.1166,-0.1195,-0.1131,-0.1125,-0.1171,-0.1164,-0.1233,-0.1233,-0.1233,-0.1233,-0.1233,0,-0.07,-0.0722,-0.0762,-0.0777,-0.0796,-0.084,-0.0866,-0.0896,-0.0943,-0.0954,-0.1016,-0.1027,-0.1104,-0.1116,-0.114,-0.1128,-0.1176,-0.1132,-0.1129,-0.1184,-0.1178,-0.1173,-0.1166,-0.1233,-0.1233,-0.1233,-0.1233,0,-0.0673,-0.0704,-0.0726,-0.0773,-0.0785,-0.0796,-0.0846,-0.0859,-0.0913,-0.093,-0.0953,-0.1013,-0.1049,-0.1078,-0.1134,-0.1118,-0.1133,-0.1109,-0.1121,-0.1118,-0.1067,-0.1062,-0.1083,-0.108,-0.1078,-0.1077,-0.1075,0,-0.0661,-0.067,-0.0704,-0.0704,-0.0727,-0.0753,-0.0762,-0.083,-0.0836,-0.0902,-0.0891,-0.0954,-0.0984,-0.0986,-0.1043,-0.1075,-0.1069,-0.1054,-0.111,-0.1061,-0.1056,-0.1055,-0.1053,-0.1072,-0.1072,-0.1071,-0.1071,0,-0.0634,-0.0646,-0.0657,-0.0647,-0.0656,-0.0669,-0.0687,-0.0693,-0.0754,-0.0814,-0.0836,-0.0882,-0.09,-0.0959,-0.0958,-0.0985,-0.1067,-0.1034,-0.104,-0.1093,-0.1049,-0.1046,-0.1046,-0.1064,-0.1065,-0.1066,-0.1066,0,-0.0601,-0.0594,-0.0591,-0.0578,-0.0584,-0.057,-0.0601,-0.0616,-0.0647,-0.0729,-0.0731,-0.0807,-0.0875,-0.0908,-0.0913,-0.093,-0.0965,-0.0958,-0.0969,-0.0977,-0.0949,-0.0877,-0.0838,0,0,0,0,0,-0.0558,-0.0536,-0.0517,-0.0497,-0.0499,-0.05,-0.0534,-0.0569,-0.0631,-0.0629,-0.0689,-0.0717,-0.0781,-0.0824,-0.0833,-0.0884,-0.0956,-0.089,-0.095,-0.1026,-0.1034,-0.1013,0,0,0,0,0,0,-0.0523,-0.0509,-0.0492,-0.0426,-0.0398,-0.0395,-0.0418,-0.0466,-0.0476,-0.0556,-0.0596,-0.0674,-0.0742,-0.0764,-0.0815,-0.0829,-0.0856,-0.0948,-0.0947,-0.1022,-0.1029,-0.1035,-0.1017,0,0,0,0,0]},{"header":{"parameterUnit":"m.s-1","parameterCategory":2,"la1":30.2991,"la2":30.254,"lo1":-89.0895,"lo2":-89.0444,"dy":0.0017,"dx":0.0017,"nx":28,"ny":28,"refTime":"2024-08-23T03:00:00:Z","depth":"4","parameterNumber":3,"parameterNumberName":"V-component_of_CURRENTS"},"data":[0,0,0,0,0,0,0,0,0,0,0,0,0,0,0,0,0,0,0,0,0,0,0,0,0,0,0,0,0,0,0,0,0,0,0,0,0,0,0,0,0,0,0,0,0,0,0,0,0,0,0,0,0,0,0,0,0,0,-0.0217,-0.0216,0,-0.0186,-0.0186,-0.0185,-0.016,-0.0159,-0.0159,-0.0159,-0.0104,-0.0103,-0.0101,0,0,0,0,0,0,0,0,0,0,0,0,0,-0.0218,-0.0218,-0.0217,-0.0216,-0.0216,-0.0186,-0.0186,-0.0185,-0.016,-0.0159,-0.0159,-0.0159,-0.0104,-0.0103,-0.0101,0,0,0,0,0,0,0,0,0,0,0,0,0,-0.0205,-0.0218,-0.0217,-0.02,-0.0199,-0.0186,-0.0186,-0.0185,-0.016,-0.0159,-0.0159,-0.0159,-0.0105,-0.0103,-0.0101,-0.0095,0,0,-0.0095,-0.0094,0,0,0,0,0,0,0,0,-0.0205,-0.0204,-0.0203,-0.0202,-0.02,-0.0177,-0.0166,-0.0154,-0.016,-0.0174,-0.0159,-0.0159,-0.0127,-0.0123,-0.0117,-0.0093,-0.009,-0.0095,-0.0094,-0.0093,-0.0092,0,0,0,0,0,0,0,-0.0206,-0.0205,-0.0204,-0.0203,-0.0201,-0.0182,-0.018,-0.0163,-0.0151,-0.0172,-0.0171,-0.0169,-0.0125,-0.0119,-0.0116,-0.009,-0.0095,-0.0093,-0.0092,-0.0091,-0.0063,-0.0064,0,0,0,0,0,0,-0.0214,-0.0207,-0.0205,-0.0203,-0.0203,-0.0183,-0.018,-0.0184,-0.0152,-0.0147,-0.0169,-0.0167,-0.0123,-0.0118,-0.0114,-0.0118,-0.0093,-0.0091,-0.009,-0.0063,-0.0063,-0.0064,0,0,0,0,0,0,-0.0214,-0.0214,-0.0206,-0.0204,-0.0202,-0.0183,-0.0187,-0.0183,-0.0178,-0.015,-0.0144,-0.0168,-0.0122,-0.0116,-0.0097,-0.0116,-0.009,-0.0089,-0.0062,-0.0063,-0.0064,-0.0119,0,0,0,0,0,0,-0.0214,-0.0215,-0.0221,-0.0205,-0.0202,-0.0201,-0.0187,-0.0183,-0.0178,-0.0176,-0.0147,-0.0141,-0.0121,-0.01,-0.0095,-0.0112,-0.0087,-0.0062,-0.0063,-0.0063,-0.0117,-0.0122,-0.0126,0,0,0,0,0,-0.0215,-0.0228,-0.0222,-0.0221,-0.0211,-0.0201,-0.0198,-0.0183,-0.0178,-0.0177,-0.0155,-0.0142,-0.0101,-0.0098,-0.0092,-0.011,-0.0061,-0.0062,-0.0063,-0.0115,-0.0121,-0.0126,0,0,0,0,0,0,-0.0233,-0.0226,-0.0219,-0.023,-0.0216,-0.0197,-0.0198,-0.0187,-0.017,-0.0169,-0.0141,-0.0134,-0.0127,-0.0107,-0.0104,-0.0104,-0.0082,-0.0082,-0.0123,-0.0129,-0.0133,-0.0161,-0.0086,0,0,0,0,0,-0.024,-0.0248,-0.0232,-0.024,-0.0236,-0.0217,-0.0212,-0.0201,-0.0184,-0.0177,-0.0156,-0.0137,-0.0126,-0.0118,-0.0101,-0.0096,-0.009,-0.0105,-0.011,-0.0114,-0.0132,-0.0135,-0.0142,-0.0067,-0.0067,-0.0067,0,0,-0.0252,-0.0247,-0.0253,-0.0245,-0.0234,-0.0237,-0.0213,-0.0209,-0.0214,-0.0173,-0.0171,-0.015,-0.0128,-0.0125,-0.0121,-0.011,-0.0129,-0.0115,-0.0118,-0.0135,-0.0136,-0.0144,-0.015,-0.0067,-0.0067,-0.0067,0,0,-0.0275,-0.0272,-0.0283,-0.0276,-0.0263,-0.0252,-0.0253,-0.0234,-0.0228,-0.0217,-0.0198,-0.0192,-0.016,-0.0161,-0.0155,-0.0175,-0.0152,-0.0162,-0.0208,-0.021,-0.0217,-0.0222,-0.0217,-0.0222,-0.0165,-0.0165,-0.0165,0,-0.0288,-0.0301,-0.0284,-0.029,-0.0295,-0.0264,-0.0279,-0.0267,-0.0244,-0.0251,-0.0222,-0.0211,-0.0186,-0.0209,-0.0211,-0.0189,-0.0177,-0.019,-0.0218,-0.0223,-0.0228,-0.0221,-0.0226,-0.0168,-0.0167,-0.0167,-0.0167,0,-0.0315,-0.0327,-0.0333,-0.0335,-0.0336,-0.0342,-0.0328,-0.0326,-0.0312,-0.0304,-0.0312,-0.0279,-0.0277,-0.0267,-0.024,-0.0271,-0.0245,-0.0223,-0.0208,-0.0239,-0.023,-0.0234,-0.0172,-0.0171,-0.017,-0.0169,0,0,-0.0348,-0.0353,-0.0357,-0.0372,-0.0364,-0.0371,-0.0383,-0.0393,-0.0419,-0.0386,-0.0418,-0.0394,-0.0377,-0.037,-0.0342,-0.0342,-0.0356,-0.0296,-0.0294,-0.0299,-0.0351,-0.0259,-0.0254,-0.033,-0.0332,-0.0333,-0.0328,0,-0.0377,-0.0402,-0.0401,-0.0437,-0.0452,-0.0443,-0.0464,-0.047,-0.0465,-0.0482,-0.046,-0.0469,-0.0415,-0.0416,-0.0408,-0.0369,-0.0369,-0.0359,-0.0314,-0.0313,-0.0234,-0.0257,-0.0336,-0.0331,-0.0332,-0.0332,-0.0333,0,-0.0407,-0.0423,-0.0459,-0.0499,-0.0508,-0.0529,-0.0573,-0.0584,-0.0598,-0.0594,-0.0597,-0.057,-0.0568,-0.0512,-0.0478,-0.0467,-0.0419,-0.0386,-0.0384,-0.0286,-0.0228,-0.0293,-0.0339,-0.0339,-0.0338,-0.0338,-0.0338,0,-0.0436,-0.0471,-0.0505,-0.0514,-0.0547,-0.0578,-0.06,-0.0624,-0.0648,-0.0667,-0.0682,-0.0669,-0.0659,-0.0608,-0.0511,-0.0499,-0.0461,-0.0438,-0.0319,-0.0312,-0.0373,-0.0366,-0.0428,-0.0428,-0.0428,-0.0428,-0.0428,0,-0.0464,-0.0498,-0.0526,-0.0546,-0.0612,-0.0619,-0.0688,-0.0706,-0.0736,-0.0762,-0.0739,-0.0741,-0.0679,-0.0632,-0.0549,-0.0433,-0.0488,-0.0338,-0.0308,-0.0393,-0.039,-0.0375,-0.0369,-0.0428,-0.0428,-0.0428,-0.0428,0,-0.0486,-0.0497,-0.0549,-0.06,-0.0624,-0.0671,-0.0737,-0.0781,-0.0799,-0.0831,-0.0836,-0.0806,-0.0722,-0.0646,-0.056,-0.0475,-0.0384,-0.033,-0.0428,-0.0402,-0.023,-0.0227,-0.0219,-0.0216,-0.0213,-0.0211,-0.0209,0,-0.0496,-0.0519,-0.059,-0.0631,-0.0659,-0.0726,-0.0773,-0.0809,-0.0835,-0.0848,-0.0853,-0.0801,-0.0752,-0.0578,-0.0486,-0.034,-0.0301,-0.0275,-0.0256,-0.0239,-0.0211,-0.0212,-0.0212,-0.0205,-0.0204,-0.0203,-0.0202,0,-0.0526,-0.055,-0.0591,-0.0669,-0.073,-0.0792,-0.0845,-0.0863,-0.0881,-0.0907,-0.0845,-0.0756,-0.0656,-0.0528,-0.0411,-0.0302,-0.0307,-0.0246,-0.0251,-0.0233,-0.0221,-0.0196,-0.02,-0.0193,-0.0194,-0.0195,-0.0196,0,-0.055,-0.0589,-0.0641,-0.0709,-0.0779,-0.0823,-0.0855,-0.0859,-0.0878,-0.0864,-0.0834,-0.0734,-0.0689,-0.0506,-0.0394,-0.0278,-0.0244,-0.0219,-0.0225,-0.0235,-0.0221,-0.0207,-0.016,0,0,0,0,0,-0.0569,-0.0612,-0.0679,-0.0747,-0.0808,-0.0846,-0.0886,-0.0901,-0.0905,-0.0853,-0.0837,-0.0725,-0.0541,-0.0476,-0.0339,-0.0343,-0.0235,-0.018,-0.0212,-0.0141,-0.0152,-0.0122,0,0,0,0,0,0,-0.0585,-0.0648,-0.0679,-0.0752,-0.0799,-0.0865,-0.0886,-0.0891,-0.0845,-0.0832,-0.0731,-0.0689,-0.0512,-0.0618,-0.0338,-0.0305,-0.0304,-0.0103,-0.0099,-0.0135,-0.0144,-0.0153,-0.0127,0,0,0,0,0]}]]